Regional Weather Roundup
Issued by NWS

Home | Current Version | Previous Version | Graphics & Text | Print | Product List | Glossary On
Versions: 1 2 3 4 5 6 7 8 9 10 11 12 13 14 15 16 17 18 19 20 21 22 23 24 25 26 27 28 29 30 31 32 33 34 35 36 37 38 39 40 41 42 43 44 45 46 47 48 49 50
000
ASUS43 KMKX 240111
RWRWI

WISCONSIN REGIONAL WEATHER ROUNDUP
NATIONAL WEATHER SERVICE MILWAUKEE/SULLIVAN WI
700 PM CST THU FEB 23 2017

NOTE: "FAIR" INDICATES FEW OR NO CLOUDS BELOW 12,000 FEET WITH NO
SIGNIFICANT WEATHER AND/OR OBSTRUCTIONS TO VISIBILITY.

WIZ001-002-006>008-014>016-023>028-240200-
NORTHWEST WISCONSIN

CITY           SKY/WX    TMP DP  RH WIND       PRES   REMARKS
SUPERIOR ARPT  CLOUDY    28  23  81 NW5       30.01R WCI  23
ASHLAND        CLOUDY    28  23  81 SW6       29.98R WCI  22
HAYWARD        CLOUDY    29  21  72 N8        29.96R WCI  21
SIREN          CLOUDY    30  23  75 N8        29.97S WCI  22
CUMBERLAND     CLOUDY    30  23  74 N10       29.93S WCI  21
RICE LAKE      CLOUDY    31  25  76 N8        29.95R WCI  24
CHETEK         CLOUDY    32  26  76 N6        29.93R WCI  27
LADYSMITH      CLOUDY    33  26  77 N9        29.93S WCI  25
EAU CLAIRE     CLOUDY    36  25  64 N9        29.89R WCI  29
MENOMONIE      CLOUDY    36  26  68 N10       29.91R WCI  28
NEW RICHMOND   CLOUDY    31  24  73 N12       29.93S WCI  22
OSCEOLA        CLOUDY    31  24  75 N8G16     29.97S WCI  23
$$

WIZ003>005-009-010-017-018-240200-
NORTH CENTRAL WISCONSIN

CITY           SKY/WX    TMP DP  RH WIND       PRES   REMARKS
MANITOWISH WTR CLOUDY    27  26  99 CALM      29.92R
ARBOR VITAE    CLOUDY    32  28  86 N7          N/A  WCI  25
WOODRUFF       CLOUDY    32  28  86 N7          N/A  WCI  25
RHINELANDER    CLOUDY    32  25  75 N3        29.90R
EAGLE RIVER    CLOUDY    30  25  81 N5        29.91R WCI  25
LAND O LAKES   CLOUDY    28  24  86 NW3       29.92R
PHILLIPS       CLOUDY    30  25  83 N5        29.92R WCI  25
TOMAHAWK       CLOUDY    31  24  74 N5        29.90R WCI  27
MEDFORD        CLOUDY    34  26  71 N9        29.87R WCI  27
MERRILL        NOT AVBL
$$

WIZ029-030-035-036-043>047-240200-
CENTRAL WISCONSIN

CITY           SKY/WX    TMP DP  RH WIND       PRES   REMARKS
WAUSAU         CLOUDY    38  24  57 N8        29.86S WCI  32
MOSINEE        CLOUDY    37  25  60 N8        29.87S WCI  31
MARSHFIELD     CLOUDY    39  24  55 NE10      29.83S WCI  32
STEVENS POINT  CLOUDY    37  24  57 N6        29.86R WCI  33
WAUPACA        CLOUDY    41  30  65 E8        29.86S
WAUTOMA        CLOUDY    38  31  76 E7        29.86S WCI  33
WISC RAPIDS    CLOUDY    41  25  53 NE5       29.85R
CAMP DOUGLAS   CLOUDY    41  27  56 NE7       29.82S
$$

WIZ011>013-019>022-031-037>040-048>050-240200-
NORTHEAST WISCONSIN

CITY           SKY/WX    TMP DP  RH WIND       PRES   REMARKS
ANTIGO         CLOUDY    34  25  71 NE7       29.87S WCI  28
SHAWANO        CLOUDY    37  28  68 E7        29.90R WCI  32
OCONTO         MOCLDY    34  26  72 E5        29.92S WCI  30
STURGEON BAY   CLOUDY    35  26  69 E7        29.93R WCI  29
GREEN BAY      CLOUDY    36  30  79 E9        29.89F WCI  29
MANITOWOC      CLOUDY    36  28  73 E6G16     29.90S WCI  31
APPLETON       CLOUDY    37  25  60 E8        29.85S WCI  31
CLINTONVILLE   CLOUDY    36  27  69 E8        29.88S WCI  29
OSHKOSH        CLOUDY    35  29  78 E9        29.87R WCI  28
$$

WIZ032>034-041-042-053>061-240200-
SOUTHWEST WISCONSIN

CITY           SKY/WX    TMP DP  RH WIND       PRES   REMARKS
LA CROSSE      CLOUDY    44  29  55 N10       29.83R
SPARTA         CLOUDY    41  29  64 N7        29.84R
VIROQUA        CLOUDY    41  32  71 NE12      29.79R
BOSCOBEL       LGT RAIN  42  36  79 NE8       29.80R
PRAIRIE DU CHI LGT RAIN  42  35  77 NE9       29.77R
PLATTEVILLE    CLOUDY    40  39  95 NE13G20   29.75R WCI  33
$$

WIZ056-057-062-063-064-067-068-240200-
SOUTH CENTRAL WISCONSIN

CITY           SKY/WX    TMP DP  RH WIND       PRES   REMARKS
REEDSBURG      CLOUDY    39  32  76 NE8       29.81S WCI  33
BARABOO/DELLS  CLOUDY    38  31  77 NE13      29.80F WCI  30
LONE ROCK      LGT RAIN  40  34  79 E14       29.81R WCI  32
MINERAL POINT  RAIN      39  37  93 NE13G20   29.77R WCI  32
MADISON        LGT RAIN  36  34  92 E12       29.79F FOG     WCI  28
MIDDLETON      CLOUDY    38  37  93 E12G17    29.79F WCI  31
WATERTOWN      DRIZZLE   34  34 100 NE9       29.81F WCI  27
MONROE         CLOUDY    36  34  93 NE13      29.75S WCI  27
JANESVILLE     CLOUDY    37  36  93 E14G22    29.76F WCI  29
$$

WIZ051-052-058>065-066-070>072-240200-
SOUTHEAST WISCONSIN

CITY           SKY/WX    TMP DP  RH WIND       PRES   REMARKS
MILWAUKEE      LGT RAIN  36  31  82 N16       29.82F WCI  26
WAUKESHA       LGT RAIN  32  30  93 NE12G18   29.83S WCI  23
MILWAUKEE/TIMM LGT RAIN  34  28  80 NE7G16    29.86R WCI  28
RACINE         CLOUDY    36  32  85 NE22      29.81F WCI  25
KENOSHA        CLOUDY    36  32  85 NE17      29.78F WCI  26
FOND DU LAC    CLOUDY    36  27  69 E14       29.86S WCI  27
SHEBOYGAN      CLOUDY    35  29  78 NE15      29.86F WCI  25
WEST BEND      LGT RAIN  34  32  93 NE10      29.85R WCI  26
JUNEAU         LGT RAIN  34  31  89 NE10      29.83S WCI  26
$$

LSZ147-162-240200-
LAKE SUPERIOR

STATION/POSITION TIME  TEMP    WIND        PRES    WAVE
                       AIR SEA DIR/SP/G            HT/PER
                 (UTC) (F)     (DEG/KT/KT) (MB)    (FT/S)
DEVILS ISLAND    0000   33     320/ 14/ 15 1015.1S
PORT WING        0030   32     330/ 12/ 14 1015.2R
SAXON HARBOR     0100   31     210/  4/ 16 1015.2
$$

LMZ867-665-643>646-240200-
LAKE MICHIGAN

STATION/POSITION TIME  TEMP    WIND        PRES    WAVE
                       AIR SEA DIR/SP/G            HT/PER
                 (UTC) (F)     (DEG/KT/KT) (MB)    (FT/S)
CHAMBERS ISLAND  0030   34      40/ 10/ 15 1013.2R
NORTHPORT PIER   0040   34      30/  4/  6 1013.5R
SISTER BAY       0035   34      CALM  /  3   N/A
KEWAUNEE LAKESHO 0048   36      60/ 10/ 16 1012.2F
SHEBOYGAN LAKESH 0100   36      40/ 20/ 22 1011.6F
PORT WASHINGTON  0100   36      40/ 17/ 22 1012.2
MILWAUKEE LAKESH 0050   36      30/ 19/ 22   N/A
KENOSHA   LAKESH 0000   36      20/ 19/ 22 1010.2
$$

TC  - TEMPERATURE IN CELSIUS
VSB - VISIBILITY IN STATUTE MILES
WCI - WIND CHILL INDEX
HX  - HEAT INDEX





USA.gov is the U.S. government's official web portal to all federal, state and local government web resources and services.